Wind_Speed
16 16 16 16 15 15 15 14 14 13 12 11 10 9 8 7 7 6 6 6 6 6 7 7 7 7 7 7 7 6 6 5 5 5 5 5 4 5 5 4 4 3 3 3 2 3 3 3 4 4 4 4 4 3 2 2 1 1 2 2 3 3 4 4 5 6 6 6 6 7 7 8 9 10 9 8 10 10 10 13 14 14 14 12 10 9 9 9
17 17 16 16 16 15 15 14 14 13 12 11 9 9 8 7 7 6 6 6 7 7 7 7 8 7 8 7 7 7 6 5 5 5 5 5 4 5 4 4 4 3 3 3 3 3 4 4 4 4 4 3 3 2 2 2 2 1 1 2 2 3 4 5 6 7 7 7 8 8 8 9 10 10 9 8 9 10 11 14 15 15 15 14 13 12 11 11
17 17 17 16 16 15 15 14 14 12 11 10 9 9 8 8 7 7 7 7 7 7 8 8 8 8 8 8 8 7 6 6 5 5 5 5 4 4 4 3 3 2 2 2 3 3 3 3 4 3 3 3 2 2 2 2 2 1 2 2 3 4 5 6 7 8 8 8 8 9 9 10 11 10 10 10 9 10 13 13 13 13 14 14 14 13 13 13
18 18 17 16 16 15 15 14 13 12 11 10 10 9 9 8 7 7 7 7 7 8 8 9 9 9 9 8 8 7 6 6 5 5 5 4 4 4 3 3 2 2 1 1 2 2 2 2 3 3 3 3 3 3 3 3 2 3 2 3 3 4 6 7 8 9 9 9 10 10 11 11 11 11 11 13 11 10 12 12 11 11 11 12 13 13 14 14
19 18 17 17 16 16 15 14 13 13 12 11 11 10 9 8 8 7 7 7 8 8 9 9 10 10 9 9 8 8 7 6 6 5 5 5 4 4 4 3 2 2 2 2 2 2 2 2 3 3 4 4 5 4 5 4 4 4 4 4 5 5 7 9 10 11 11 11 11 11 12 11 11 11 13 14 12 11 11 10 10 10 10 11 13 13 14 15
20 19 18 18 17 17 16 15 14 14 13 13 12 11 10 9 8 8 8 8 9 9 10 10 10 10 10 9 8 8 6 5 5 5 6 5 5 5 4 4 4 3 3 3 3 3 3 4 4 5 6 7 7 7 7 7 6 6 6 6 7 7 8 10 11 12 12 11 12 13 12 11 11 12 13 13 13 12 10 9 10 11 11 12 13 14 15 16
21 20 19 19 18 17 17 16 16 15 15 14 13 12 11 10 10 9 9 9 10 10 11 11 11 11 11 10 9 9 7 7 7 6 6 6 6 6 5 5 5 5 5 4 4 5 5 6 7 8 8 9 10 9 9 9 8 8 8 8 9 8 9 11 12 13 12 12 13 14 12 12 12 12 12 12 13 12 10 9 10 10 11 12 13 14 15 16
21 21 21 20 19 18 18 17 17 17 16 15 14 14 12 11 11 10 10 11 11 12 12 12 12 12 12 11 10 9 8 10 10 8 8 7 7 7 7 7 7 7 7 7 7 7 8 8 9 10 10 11 11 11 11 10 10 10 10 9 9 9 10 11 12 13 13 13 14 14 12 12 13 13 12 11 12 11 10 11 10 10 11 12 13 14 15 16
22 23 22 22 21 20 19 19 18 18 17 17 16 15 14 13 12 12 12 12 13 13 13 13 13 13 13 12 12 10 9 11 11 9 9 9 9 9 9 9 9 9 9 10 10 10 10 11 11 12 12 12 12 13 13 12 12 11 10 10 10 10 11 12 12 13 13 13 14 14 13 13 14 13 12 11 10 10 12 13 12 12 12 12 13 14 15 15
23 23 24 23 22 21 21 20 20 19 19 18 17 16 15 15 14 14 14 14 14 14 14 14 14 15 14 14 13 11 11 12 12 11 11 11 11 11 11 11 11 11 12 12 13 13 13 13 13 14 14 14 14 14 14 13 13 12 12 12 11 12 12 12 12 12 13 13 14 15 14 14 14 13 12 11 11 11 13 15 15 15 15 14 15 16 17 16
23 24 25 25 24 23 23 22 21 21 20 19 18 18 17 16 16 16 16 16 16 16 15 15 16 16 16 16 14 11 12 13 12 12 12 12 13 13 13 13 13 13 14 14 15 15 15 15 15 15 15 15 15 14 14 14 14 14 14 13 13 14 13 12 12 12 13 14 15 16 15 15 14 14 13 12 13 14 16 17 17 17 17 17 17 18 18 18
25 25 26 26 25 25 24 23 22 22 21 20 20 19 18 18 18 18 17 18 18 17 17 17 17 17 17 17 14 13 14 14 13 13 14 14 14 15 15 15 15 15 16 16 17 17 17 17 17 16 16 16 16 14 14 14 14 15 15 15 15 15 14 14 13 14 14 14 15 16 16 15 14 13 12 13 14 16 18 18 18 18 19 19 20 20 19 18
26 26 26 27 27 26 26 25 23 23 22 21 21 20 20 19 19 19 19 19 19 19 18 18 18 18 19 17 15 15 16 15 15 15 15 15 16 16 16 16 17 17 17 18 18 18 18 18 18 18 18 18 18 16 15 15 15 16 17 17 17 16 15 14 14 13 13 12 13 14 16 14 12 12 12 13 14 17 19 19 19 20 21 21 21 21 21 20
28 27 27 28 28 27 27 26 25 24 23 23 23 22 21 20 21 21 21 21 20 20 20 19 19 19 20 18 16 16 16 16 17 16 17 17 17 18 18 18 18 19 19 19 19 19 19 19 18 19 19 19 19 17 16 16 17 17 17 18 17 16 15 14 13 12 11 12 13 15 17 17 15 14 13 14 15 17 19 20 21 22 23 22 22 23 23 21
29 29 28 29 29 29 28 28 27 25 25 25 24 23 22 22 22 22 22 22 22 21 20 20 20 20 21 19 17 18 18 18 18 18 19 19 19 20 20 20 20 20 20 19 20 19 19 19 19 19 19 19 19 18 16 16 17 17 17 17 16 16 16 15 15 14 13 14 15 14 15 17 17 15 13 14 15 18 20 21 23 23 23 22 22 23 23 21
31 30 30 30 30 30 30 29 28 27 26 26 25 24 23 23 23 23 23 23 23 22 21 21 20 21 22 19 18 19 19 19 20 20 20 20 20 20 20 21 21 20 20 20 20 20 19 19 19 19 20 20 20 18 16 17 19 18 18 17 16 16 16 15 15 16 15 14 14 15 16 18 19 19 17 16 17 19 21 22 22 23 23 24 23 22 21 20
33 32 32 32 32 32 31 30 30 28 28 28 27 25 25 25 24 24 24 23 23 22 22 22 21 22 23 20 19 19 18 19 19 19 19 19 20 20 20 20 20 20 20 20 20 20 19 19 20 20 20 21 20 18 16 18 19 17 16 15 15 16 16 17 17 16 15 15 16 18 20 21 21 22 22 22 22 22 23 23 23 24 25 25 23 21 20 19
34 34 34 33 33 33 32 32 31 30 29 29 28 26 26 26 25 25 25 24 24 23 23 23 22 24 23 21 20 20 20 20 20 20 20 20 20 20 21 21 21 21 21 21 21 20 20 21 21 21 22 23 23 21 19 18 17 15 14 14 16 17 19 20 19 18 18 18 19 21 24 24 22 23 24 25 26 26 26 26 26 26 25 23 22 20 19 18
36 36 35 35 35 34 34 33 32 31 30 29 28 27 27 26 26 26 26 25 25 24 24 23 23 24 23 20 20 19 19 19 18 18 17 17 18 19 20 20 21 21 21 22 22 21 21 21 21 23 25 25 23 21 19 17 15 15 15 17 18 20 22 23 22 21 21 22 24 25 27 27 24 23 24 26 27 27 27 26 26 25 24 22 20 19 17 16
38 37 37 37 36 36 35 34 33 31 31 30 29 28 28 27 27 27 27 26 26 25 26 25 25 26 25 24 22 22 21 21 20 20 19 20 20 21 21 21 22 21 22 22 21 21 21 23 26 27 26 24 22 19 18 16 16 17 18 19 20 22 25 24 22 23 24 25 27 28 28 29 26 23 24 25 26 26 26 26 25 25 24 22 18 16 16 16
39 39 39 38 37 37 36 35 33 32 31 31 30 29 29 28 28 28 27 27 26 27 28 28 29 29 27 27 26 26 25 25 24 23 23 23 22 23 23 23 24 23 23 22 22 23 25 28 29 26 23 22 19 18 18 19 19 20 21 21 22 25 27 25 24 25 25 27 27 26 27 28 25 23 25 26 26 26 26 25 24 24 23 20 16 15 15 15
40 40 39 39 38 37 37 35 34 32 32 31 30 29 29 28 28 28 28 29 29 28 29 30 30 29 28 28 27 27 27 26 26 25 24 24 24 25 26 26 26 26 25 25 25 26 29 32 29 24 23 22 20 20 20 21 22 22 23 24 25 27 27 24 23 23 22 23 23 23 26 27 25 25 26 26 26 25 24 23 23 23 21 18 16 14 14 14
40 40 40 40 39 38 37 36 34 33 32 31 30 29 28 28 29 29 29 32 32 31 31 31 32 31 29 30 29 29 29 28 27 27 26 26 26 27 28 29 28 28 28 28 29 29 31 29 24 20 21 21 20 21 21 23 25 26 26 27 28 28 25 22 21 21 21 22 24 25 28 29 27 26 26 25 25 23 21 21 21 20 19 17 16 15 14 15
40 39 40 40 39 38 38 36 35 33 32 31 30 29 29 28 29 29 29 33 36 35 32 32 33 33 31 31 31 31 31 30 29 29 28 28 29 29 31 30 29 31 30 30 30 32 32 29 25 24 22 21 21 21 22 24 25 25 26 28 28 26 23 23 22 22 24 25 26 25 25 27 23 18 17 17 18 18 18 19 18 17 17 17 17 17 16 16
40 39 40 40 39 39 38 38 37 33 32 32 30 29 29 29 29 29 29 31 38 38 34 35 35 34 34 33 32 32 32 33 32 30 30 31 31 32 32 32 32 33 32 30 31 33 32 30 30 30 28 26 26 27 26 26 26 27 28 29 27 24 23 23 22 21 22 22 22 17 12 11 7 4 4 6 9 11 14 15 15 15 16 17 17 18 18 18
40 40 40 40 40 39 39 40 36 32 33 32 30 29 29 29 27 27 27 28 39 43 38 36 34 32 33 33 33 33 33 35 34 32 33 33 34 34 34 35 35 33 32 30 30 32 33 31 31 30 29 29 29 30 29 28 28 29 30 29 25 23 21 18 17 16 14 14 14 13 9 7 10 11 10 11 12 12 12 12 13 14 14 15 17 18 19 19
41 41 41 41 41 40 42 40 35 34 34 30 30 29 28 28 25 25 22 18 28 38 36 35 33 31 30 29 30 30 32 33 31 32 35 35 36 37 37 37 37 34 33 30 28 31 32 29 28 27 27 28 30 30 28 28 28 28 29 26 22 20 18 16 15 14 15 16 16 19 19 16 19 21 18 16 17 16 15 15 14 14 14 15 17 18 20 21
42 42 42 42 41 42 43 40 37 35 33 30 30 29 27 26 23 21 14 6 13 22 22 23 26 28 27 26 27 28 31 31 28 28 31 32 36 38 38 39 38 35 33 31 32 33 30 26 24 24 24 26 27 26 25 25 26 26 25 22 19 16 15 15 15 15 16 17 18 22 20 13 13 16 15 15 17 15 14 14 14 14 15 16 17 18 19 21
43 43 44 42 42 44 44 42 40 35 33 31 30 28 27 25 22 17 8 6 14 18 16 15 19 21 21 22 23 25 28 30 28 28 28 28 31 34 35 35 34 33 32 33 34 32 29 27 26 24 25 25 23 21 22 23 23 23 22 21 18 16 15 14 13 14 14 13 16 21 20 12 9 13 14 14 13 10 10 11 11 11 12 13 14 16 19 21
44 45 44 44 45 45 45 44 40 36 35 33 30 29 27 25 23 14 7 12 16 14 14 16 18 20 18 19 20 21 24 26 28 29 29 28 27 28 29 28 28 29 30 32 32 32 31 30 28 27 26 24 22 20 20 20 21 20 18 17 15 13 13 11 11 12 9 8 14 18 21 17 7 4 8 8 6 6 10 11 9 8 9 11 13 16 18 20
45 45 45 47 47 45 45 44 40 38 36 34 31 29 27 25 22 14 11 22 20 13 16 17 17 19 19 19 20 21 23 25 27 29 30 30 28 27 27 26 26 25 27 31 31 30 32 31 30 30 28 26 23 21 20 19 20 19 17 15 11 7 6 7 8 8 5 5 7 10 16 21 13 5 5 6 9 13 15 10 8 8 9 12 14 17 18 19
45 46 46 48 47 47 47 44 40 38 36 35 32 30 30 23 22 25 25 22 14 12 19 20 19 19 19 21 23 22 24 25 27 30 30 29 29 30 29 28 28 23 23 29 31 30 30 31 30 29 28 27 25 22 20 20 19 18 18 17 11 3 1 4 4 4 6 8 8 8 11 16 21 18 10 8 11 16 14 7 7 7 10 13 15 17 18 19
45 46 47 49 49 48 47 44 42 38 35 35 31 32 32 20 23 43 43 27 13 8 11 15 20 22 21 24 26 25 26 27 28 29 29 29 29 30 30 30 30 26 22 21 23 25 24 24 27 29 29 28 28 27 24 22 20 20 21 20 13 5 2 3 4 2 6 9 10 11 9 11 18 19 17 16 15 15 13 8 7 9 12 15 16 17 18 19
46 46 48 50 49 48 47 44 43 39 34 35 34 34 32 25 34 49 45 40 33 20 12 11 15 21 24 26 26 26 28 28 28 29 29 30 30 31 32 31 31 31 28 20 16 18 16 14 19 24 26 25 27 29 26 21 18 18 21 22 18 13 7 4 4 3 2 3 6 10 7 7 7 5 10 18 19 16 12 10 12 15 15 16 17 18 18 19
44 44 45 47 47 47 47 43 39 36 34 36 37 37 37 39 48 47 41 46 45 35 28 20 16 20 25 28 27 26 27 27 28 29 30 31 32 33 32 32 32 32 31 25 17 16 16 14 14 16 20 21 22 25 27 25 18 15 19 22 22 22 16 8 4 5 4 4 4 10 11 10 10 7 8 13 15 14 12 13 15 15 15 16 17 17 18 19
42 43 45 47 48 46 45 43 39 36 36 38 40 43 48 52 52 45 41 43 43 44 42 32 25 25 26 29 29 28 27 28 28 28 30 32 34 35 34 32 33 33 33 30 24 18 16 16 16 16 17 19 20 21 26 28 23 18 22 26 25 24 21 12 6 6 5 5 7 11 14 17 17 16 16 14 13 12 12 13 12 13 15 16 16 17 18 20
43 45 48 50 51 47 44 44 42 38 38 42 46 49 56 59 55 49 43 38 38 42 42 37 33 31 30 30 31 31 29 29 30 29 30 29 29 33 35 34 34 35 33 31 28 23 17 13 14 17 18 20 21 21 23 28 27 23 23 25 24 20 19 14 5 2 1 3 7 10 15 18 15 14 16 14 11 10 11 10 9 11 13 14 14 15 17 19
50 47 50 53 51 48 46 44 44 43 42 46 51 54 58 59 56 53 49 43 39 36 38 41 38 34 33 32 32 32 31 32 33 32 31 30 27 27 29 30 34 36 34 30 28 27 22 15 13 16 17 18 22 23 22 25 28 28 25 23 20 15 13 14 8 2 2 2 5 7 12 17 17 16 14 11 8 6 8 7 7 9 10 11 12 13 16 18
52 49 53 55 51 48 48 46 45 46 46 50 54 57 59 59 57 54 52 51 46 40 40 43 39 35 35 34 33 32 33 36 36 34 33 31 29 29 28 26 27 31 34 33 31 29 26 20 14 16 19 19 23 27 27 27 28 31 29 24 21 15 11 15 15 8 4 3 4 5 6 9 11 11 8 6 5 6 8 8 9 12 12 10 11 14 17 18
51 51 58 57 51 49 48 46 46 49 51 54 57 59 59 56 56 56 55 54 53 48 46 46 42 39 37 35 34 33 33 36 37 37 35 32 31 31 29 27 27 27 29 32 34 31 29 25 19 18 22 23 26 29 30 30 29 31 31 28 27 23 16 14 18 17 10 3 2 2 5 5 5 6 6 3 8 10 11 12 14 16 14 12 14 16 18 18
51 51 61 60 53 51 49 47 50 55 56 56 59 61 59 55 54 55 56 56 55 52 50 47 43 43 42 39 37 35 33 35 37 37 37 37 36 33 30 29 28 27 27 32 36 35 33 31 26 24 26 29 31 30 29 29 30 30 30 30 29 28 24 14 11 19 20 13 7 3 7 11 6 6 4 11 14 14 15 17 17 15 14 15 17 18 18 20
56 53 60 61 55 53 52 52 55 59 59 59 61 62 60 58 55 53 54 55 54 54 51 47 43 42 42 42 40 38 36 37 38 39 39 40 40 36 33 30 28 27 28 30 34 36 36 33 30 29 30 30 29 29 28 28 30 30 30 30 27 29 33 24 12 15 19 20 18 7 9 20 16 11 16 21 21 20 20 18 16 16 18 19 20 20 21 22
57 55 58 59 56 54 54 55 57 60 61 61 63 62 60 62 59 54 52 52 53 54 52 47 43 41 41 41 40 39 38 38 39 42 42 41 40 37 35 35 32 29 29 29 32 36 37 33 30 27 26 26 27 30 29 26 28 31 31 33 32 32 34 32 27 22 16 19 19 8 7 21 20 18 22 21 23 25 22 20 20 22 24 22 19 19 19 18
57 56 58 59 57 54 54 57 59 63 64 62 62 62 61 63 62 59 55 52 52 53 53 51 47 43 42 41 40 41 40 38 39 42 41 41 41 38 37 39 36 32 32 32 32 34 36 35 30 19 10 12 17 20 24 26 28 31 33 35 36 35 32 32 34 28 19 20 21 12 12 23 25 24 23 22 26 28 24 24 27 27 24 20 17 18 19 19
57 56 57 59 56 52 55 60 61 64 66 64 63 64 63 63 64 64 60 54 52 50 49 51 51 48 46 43 42 43 43 41 39 38 39 41 41 38 38 39 38 34 32 31 30 30 34 38 37 25 13 10 11 14 23 32 34 34 36 35 33 34 34 34 34 29 19 18 22 22 23 30 36 36 32 31 34 30 27 30 31 28 24 22 23 24 24 24
50 52 54 56 53 49 50 54 56 61 65 65 65 66 65 65 64 63 59 55 53 50 46 47 48 48 48 48 46 45 44 44 41 39 39 39 39 39 39 40 40 37 34 32 30 28 31 38 40 38 33 28 24 22 24 28 31 33 36 35 35 35 36 37 34 32 27 18 22 35 35 32 40 44 39 39 39 34 33 34 33 32 31 31 31 30 29 27
42 48 53 52 47 45 47 49 51 58 63 65 65 65 66 66 63 60 58 57 56 54 49 46 47 47 48 49 47 45 45 44 43 45 44 40 38 38 37 38 38 38 36 34 32 29 30 35 38 39 39 36 32 26 23 22 23 26 29 31 34 35 38 41 39 38 36 24 25 40 38 33 42 45 39 40 39 36 36 36 37 38 37 35 34 32 31 30
40 45 51 52 47 45 50 54 53 54 58 61 63 62 60 61 60 58 58 59 59 57 53 51 54 56 54 51 48 45 45 44 44 48 48 43 39 37 35 35 35 38 39 38 37 35 32 34 36 35 34 35 32 29 28 25 22 22 23 25 29 31 36 42 42 42 42 35 34 42 39 39 47 44 38 38 38 38 40 41 42 41 38 36 35 34 34 31
44 44 46 51 51 47 47 53 54 52 52 55 59 61 59 59 61 61 59 56 56 59 58 57 60 63 59 55 51 47 46 46 47 49 49 47 44 40 37 35 35 38 39 38 38 37 34 34 35 34 34 35 33 32 32 30 28 29 30 31 34 35 36 38 38 39 42 42 43 42 40 45 48 42 39 41 40 42 43 42 41 40 39 39 38 37 34 30
44 46 45 45 51 53 49 50 53 55 54 53 54 59 61 62 63 63 60 58 58 59 60 60 62 61 55 51 50 49 51 51 49 49 48 48 49 46 41 37 35 35 36 36 37 37 35 35 34 34 34 35 37 36 34 34 33 34 37 39 38 37 36 37 36 36 37 40 42 42 43 49 51 46 45 44 42 42 41 40 40 40 40 39 38 36 34 32
36 42 47 44 43 49 52 51 52 55 56 54 52 51 53 56 58 57 57 59 60 59 58 58 57 52 48 47 48 49 51 51 50 50 48 46 45 43 41 38 35 34 35 37 37 37 37 35 34 32 28 31 37 34 32 35 32 34 44 45 39 38 40 40 39 38 40 43 44 44 47 52 52 48 45 42 40 39 38 38 38 39 39 39 38 37 35 34
32 34 43 46 40 39 44 49 51 52 54 56 55 52 52 51 51 50 49 50 53 54 54 54 50 45 45 47 49 49 49 48 49 49 45 40 37 35 34 34 34 34 36 36 35 36 37 36 35 32 25 26 30 27 27 26 20 28 47 47 39 40 42 43 44 44 45 47 47 48 51 52 48 42 39 38 37 37 37 37 37 37 37 36 35 33 32 32
Wind_Direction
193 190 187 184 181 178 176 174 175 176 176 177 178 178 182 188 193 200 207 216 223 230 235 238 242 244 246 249 250 251 253 250 247 244 242 241 237 241 246 241 236 233 233 239 246 254 259 263 270 271 270 265 259 258 250 223 186 176 205 239 247 246 243 234 233 233 231 230 235 246 256 261 264 269 273 276 279 285 284 281 286 293 297 303 306 303 299 296
191 187 184 182 182 182 182 182 183 184 183 183 184 187 194 201 207 213 219 227 234 240 244 247 249 251 253 254 255 256 257 254 250 243 240 241 236 233 230 223 223 224 231 242 252 259 261 265 268 268 263 257 247 228 208 176 164 167 196 232 247 252 248 238 238 237 236 241 249 258 264 267 268 269 273 271 272 279 277 277 285 293 300 305 306 306 303 299
192 189 188 188 189 190 190 190 191 190 190 191 192 198 205 210 217 223 229 236 243 249 253 255 257 257 256 256 256 255 253 254 249 240 241 241 229 220 221 222 227 234 246 256 264 269 269 263 256 249 240 236 221 203 205 202 204 215 218 236 246 252 255 251 247 247 246 251 258 262 263 267 270 271 275 272 268 269 269 271 277 284 291 296 299 301 301 299
197 196 195 195 196 197 197 197 197 197 198 199 202 208 214 220 227 233 240 247 253 259 262 263 263 261 260 258 256 253 248 246 245 241 237 223 213 221 229 233 235 247 267 275 277 276 268 250 231 223 224 232 231 228 242 246 248 251 249 249 242 245 257 257 255 255 255 260 264 263 264 266 271 276 278 277 275 267 268 275 275 273 273 279 285 288 290 290
204 203 202 202 203 203 203 203 203 204 207 209 212 217 223 230 237 244 251 258 261 264 266 267 266 264 261 258 254 251 245 246 251 235 213 207 222 233 233 237 240 249 258 261 264 265 257 247 241 241 242 249 255 257 261 264 267 266 261 256 248 248 257 258 256 257 259 263 264 264 265 265 269 276 278 279 279 272 273 278 274 269 267 270 276 280 284 286
211 210 209 208 208 208 208 209 209 211 213 216 220 224 230 237 244 252 258 262 265 266 268 268 267 265 262 257 251 246 239 240 243 212 204 222 235 232 235 243 244 246 250 251 254 256 257 256 257 260 261 265 267 269 270 272 273 269 267 266 265 262 256 257 259 259 262 263 265 266 266 267 271 273 276 279 278 279 280 268 257 260 267 274 279 282 284 286
216 215 214 213 213 213 213 213 214 216 219 222 226 230 235 242 249 256 262 265 267 268 269 268 266 264 259 253 246 241 233 234 237 225 227 238 233 232 238 242 247 253 256 257 257 258 258 260 262 264 266 268 270 271 271 271 270 270 272 273 273 270 259 256 259 260 263 264 266 267 267 272 274 272 274 276 277 283 279 257 246 252 263 273 279 283 285 286
222 220 219 217 217 216 217 217 219 221 223 227 231 236 240 246 252 258 262 265 267 267 267 265 263 260 255 249 243 240 233 237 243 240 239 240 236 240 243 246 253 256 259 261 259 260 261 261 262 264 266 267 269 271 270 270 270 271 273 272 270 268 261 258 260 262 264 265 265 267 271 274 274 274 276 275 278 282 269 256 253 258 267 274 279 283 286 288
227 225 223 221 220 219 220 220 222 224 227 231 234 239 244 249 254 259 262 265 266 266 265 262 258 254 250 246 243 240 236 240 245 242 241 243 242 245 248 254 258 259 263 264 262 262 262 262 263 266 268 269 270 272 273 274 274 273 271 270 267 263 262 264 266 266 265 264 263 267 273 273 273 276 277 278 281 274 259 256 261 267 273 278 285 289 290 290
231 229 226 225 223 222 222 223 224 227 230 233 237 242 246 251 256 259 263 265 266 265 263 260 255 251 247 245 243 240 241 243 242 242 242 243 245 249 254 259 262 265 267 267 266 266 265 265 266 268 270 272 273 274 275 276 275 276 274 272 270 267 266 268 268 265 263 263 266 270 271 269 270 272 276 281 280 268 257 257 261 267 271 278 287 294 296 295
235 232 230 228 226 225 225 225 227 229 232 236 240 244 248 253 257 261 264 266 266 265 263 259 255 250 247 245 243 242 245 245 242 242 244 247 252 256 261 264 266 268 268 268 269 268 268 268 268 269 271 271 271 272 273 274 276 277 277 276 273 273 273 271 267 259 260 264 270 271 268 266 267 268 271 272 269 263 259 259 262 267 272 281 290 297 300 299
238 235 234 232 230 229 229 229 230 232 234 238 242 246 250 254 259 262 265 266 266 265 263 259 255 251 248 246 245 246 246 247 247 246 249 254 258 261 265 267 269 269 269 269 269 269 269 268 268 268 268 268 269 271 273 274 276 277 278 279 277 277 278 275 269 260 259 265 267 271 274 270 264 265 267 263 259 257 257 259 263 267 273 282 290 296 301 300
240 237 236 235 234 233 233 233 233 235 237 240 243 247 252 256 260 263 265 267 267 266 263 259 255 252 250 248 246 247 248 250 251 252 255 258 260 263 266 267 268 269 269 269 269 269 268 267 267 266 266 268 268 269 271 274 277 278 280 282 282 283 282 280 275 266 260 260 263 272 278 274 266 269 270 264 258 255 255 258 262 267 275 282 287 294 299 298
239 238 237 237 236 236 236 236 236 237 239 242 245 248 253 257 261 264 266 267 266 265 263 259 256 253 252 250 247 248 250 251 252 255 257 259 262 263 265 266 267 268 268 268 268 267 266 267 266 266 266 267 268 270 272 275 276 277 280 282 285 286 287 287 284 275 262 260 267 272 275 275 276 278 273 265 259 255 253 255 260 268 275 279 284 290 294 293
238 239 237 237 237 237 238 238 239 239 241 243 246 249 253 256 260 263 265 266 265 264 262 259 256 255 255 253 251 252 253 254 256 257 258 259 261 263 264 264 265 266 266 265 265 264 264 264 263 264 266 267 269 269 271 275 275 276 278 280 284 285 285 286 281 274 268 268 268 267 270 278 283 282 275 268 260 253 252 255 261 269 274 277 281 287 289 287
237 238 238 238 238 238 238 239 240 241 242 244 247 250 252 256 259 262 264 265 264 262 260 258 257 257 259 257 254 254 256 257 258 257 258 259 259 260 262 263 263 263 263 263 262 262 261 259 261 262 264 266 267 268 271 272 271 273 277 279 282 282 281 281 275 272 272 270 266 264 269 278 284 284 282 276 267 259 257 260 266 271 275 278 282 285 284 281
238 238 238 238 238 238 238 239 240 241 243 245 248 250 253 256 259 261 263 263 262 260 258 258 257 259 261 259 257 257 258 257 256 256 257 257 258 260 261 261 261 260 260 261 259 258 257 258 260 261 263 264 263 263 261 264 272 277 279 277 275 274 276 278 277 276 275 269 266 268 271 275 280 283 282 279 273 268 265 267 269 272 276 279 282 282 278 275
239 239 239 239 239 238 238 239 240 241 243 246 249 251 253 256 259 260 261 261 259 257 257 257 257 260 262 260 260 260 258 256 256 257 257 258 259 260 261 260 259 259 258 257 256 256 257 258 258 258 259 259 260 260 257 268 286 286 277 270 267 269 273 277 279 279 276 272 270 271 275 278 279 279 279 276 274 272 271 272 273 274 276 277 279 278 272 271
240 240 240 239 239 238 238 238 239 241 243 247 249 251 254 257 259 260 260 259 257 256 258 258 257 259 260 258 259 258 256 257 256 255 255 256 258 258 259 258 258 258 257 256 257 256 255 254 252 253 259 263 269 273 274 282 285 274 266 264 265 269 273 277 279 278 276 275 274 275 280 282 280 277 275 272 271 272 273 274 274 275 276 277 276 271 266 271
240 241 241 240 239 238 237 237 238 239 243 246 249 252 255 257 259 259 258 258 257 257 257 257 257 257 258 258 258 258 258 259 258 258 259 258 259 259 258 258 258 257 257 256 255 255 255 253 254 259 268 275 280 281 278 272 264 260 261 263 266 270 274 277 277 275 276 275 277 281 284 282 280 278 273 270 270 270 270 272 273 274 276 277 272 264 264 272
240 240 240 239 238 237 236 236 236 238 242 245 249 252 255 257 259 259 259 258 256 256 256 257 258 257 258 258 258 259 260 260 260 260 260 260 259 259 258 258 258 258 258 257 256 258 258 256 261 269 276 277 275 269 263 259 257 259 261 265 268 269 273 277 276 275 275 276 280 283 282 280 279 278 274 272 271 271 271 272 273 273 274 274 266 260 266 275
239 239 239 238 237 237 236 236 236 238 242 245 248 253 256 258 259 260 262 261 257 255 257 257 257 257 257 258 258 258 258 258 259 259 259 260 259 259 260 259 259 260 259 257 257 259 258 260 268 275 273 268 263 258 256 256 257 259 261 264 266 269 273 276 276 276 275 279 282 283 282 279 278 277 275 275 274 274 274 273 272 272 272 268 262 263 270 274
237 238 238 237 236 236 236 236 237 239 242 245 249 253 256 257 259 261 263 266 262 256 256 257 257 258 257 256 257 257 257 256 257 258 257 258 258 258 259 259 259 259 257 257 258 256 257 264 272 271 265 261 258 256 254 255 257 259 260 262 265 271 273 273 275 276 277 280 282 284 285 282 279 278 275 274 273 273 273 270 269 269 267 263 261 268 271 270
236 236 236 236 235 235 236 237 238 239 243 247 250 252 254 255 258 261 266 270 268 259 255 256 256 256 255 256 256 255 256 256 254 254 255 256 256 256 257 259 258 257 257 259 260 258 260 265 267 263 262 259 257 257 256 256 257 259 261 262 266 271 272 271 272 275 277 279 280 284 289 286 282 280 274 270 269 267 263 260 260 258 256 257 261 266 268 271
233 233 234 235 235 235 236 238 238 240 244 247 249 251 253 255 258 264 269 274 273 265 258 257 256 255 254 252 253 254 255 255 253 253 254 254 254 255 256 256 255 257 259 259 259 260 260 262 261 260 261 260 260 260 259 260 260 261 263 264 267 269 269 269 269 270 273 275 276 278 285 286 267 233 249 266 263 259 257 253 250 248 249 253 258 262 266 273
232 232 232 233 235 235 237 239 239 242 245 246 249 250 251 255 259 265 269 275 275 269 263 260 256 253 251 248 249 251 252 253 253 252 252 252 253 253 253 253 254 256 258 258 258 258 259 259 259 259 261 261 261 260 260 260 259 260 264 266 265 264 263 264 264 260 259 265 269 264 257 248 244 248 259 265 260 255 255 255 249 247 248 250 253 257 264 273
231 231 231 232 233 236 239 241 241 242 245 246 247 249 250 254 258 263 270 279 276 269 265 259 253 251 250 248 248 244 245 252 253 250 249 250 250 250 251 252 254 254 255 253 249 254 259 258 258 259 260 259 259 260 262 259 256 258 263 266 264 262 259 259 260 255 255 262 265 263 260 258 263 267 268 263 260 258 255 254 252 250 249 251 253 258 264 270
229 230 231 232 233 236 240 241 241 242 245 245 245 247 248 251 255 258 262 274 270 266 262 252 248 250 247 244 245 239 241 250 251 248 248 247 247 249 250 252 254 255 255 251 248 255 261 260 259 259 257 257 259 263 263 259 256 257 262 264 261 258 256 258 262 260 262 265 261 258 254 252 264 267 269 267 264 263 257 248 246 246 247 250 255 260 264 267
228 229 231 231 233 236 239 241 240 240 242 241 241 244 244 246 247 243 237 244 253 255 251 241 238 241 238 236 237 237 242 246 245 246 248 244 244 246 247 250 252 252 252 251 251 254 257 256 257 255 254 256 258 259 257 254 254 254 257 258 255 254 256 261 264 262 264 260 256 257 249 245 264 261 259 266 267 258 238 224 225 234 241 250 258 262 264 264
227 229 230 232 234 236 238 240 241 240 240 239 238 240 239 239 233 215 207 239 243 245 240 230 228 232 232 229 228 231 238 241 241 243 243 241 242 243 244 246 247 247 248 249 249 251 252 253 252 251 252 253 251 249 248 248 247 245 247 247 247 251 255 259 258 257 263 257 256 259 249 242 258 267 238 241 241 195 175 180 199 221 240 253 258 260 262 264
228 229 230 232 234 236 238 240 239 238 237 235 234 234 233 230 218 197 220 240 239 241 234 221 219 227 234 236 234 232 233 236 239 239 239 240 241 241 240 240 240 239 240 242 245 248 247 246 247 248 249 248 245 243 242 243 240 235 234 231 228 234 245 252 248 239 241 253 255 248 235 228 226 222 190 182 180 164 157 171 205 221 236 244 249 254 257 263
230 230 231 233 233 235 237 238 238 236 234 232 230 229 225 214 208 215 227 236 243 245 232 224 224 229 235 238 235 233 232 235 238 238 239 238 240 244 246 246 243 235 235 241 244 247 247 247 246 246 247 245 242 237 233 234 231 224 221 216 208 194 238 243 235 225 234 246 243 223 218 225 233 239 225 181 167 169 175 201 221 227 239 242 249 254 256 260
232 231 230 231 233 234 235 236 236 231 227 227 226 224 218 203 219 229 227 224 230 238 223 218 225 228 229 230 229 230 231 234 236 237 239 239 240 243 244 247 246 241 242 245 242 242 246 250 244 240 241 240 235 230 225 224 222 218 216 210 199 164 98 247 247 270 258 249 234 219 222 239 246 250 238 213 195 191 207 237 259 262 256 250 251 252 255 260
233 233 230 231 231 232 232 232 232 229 223 221 220 215 206 208 233 235 230 227 229 234 230 211 211 219 222 225 228 229 228 231 234 234 236 238 239 240 240 242 242 241 239 236 235 233 234 245 241 234 235 235 233 231 227 226 224 223 222 216 212 207 203 220 217 214 256 263 214 201 211 230 223 223 208 202 203 211 230 264 280 277 265 257 256 254 257 262
234 235 234 233 230 229 229 229 229 227 221 219 216 208 203 216 232 234 232 231 229 230 235 231 223 218 218 221 225 227 227 230 233 233 236 239 240 242 243 242 240 237 230 224 225 227 227 238 239 230 229 231 232 229 225 224 223 222 218 214 219 225 228 238 237 234 270 328 244 211 221 232 221 214 195 190 203 222 249 276 280 275 266 261 262 260 260 262
237 235 233 233 231 230 229 228 227 221 217 216 209 206 216 226 231 232 235 235 232 232 233 234 231 222 218 221 222 223 225 228 232 233 236 240 243 244 243 244 243 240 234 227 224 222 223 235 236 228 225 222 222 223 222 222 221 215 211 214 221 226 228 237 258 265 270 292 261 229 232 244 246 251 248 235 233 243 263 278 276 268 264 263 265 264 262 262
238 234 232 231 230 229 228 228 226 218 216 216 210 214 227 234 234 235 239 238 236 236 234 233 233 229 225 224 224 225 224 227 230 232 234 238 243 246 243 243 242 240 238 234 231 230 229 234 234 227 224 220 217 216 216 220 221 216 215 221 223 223 226 228 243 313 239 259 263 237 238 245 239 243 252 245 237 251 269 275 269 262 263 267 266 261 257 255
238 237 235 232 229 228 227 227 226 219 215 214 216 226 235 237 238 238 238 238 237 235 235 235 236 236 233 229 228 227 225 227 229 230 234 237 244 251 249 246 244 240 237 233 232 233 232 233 231 221 219 218 217 215 212 214 218 220 225 224 215 211 212 207 209 255 194 232 281 249 242 249 239 236 248 244 226 252 275 275 273 268 268 270 258 246 248 250
235 237 238 233 229 229 227 227 225 219 215 212 216 228 235 236 239 240 238 239 238 236 238 239 238 237 236 235 232 229 227 231 232 231 234 238 244 253 254 251 246 240 236 233 231 231 228 229 230 222 219 216 214 214 212 211 212 215 221 221 215 214 207 201 209 217 186 203 267 267 257 254 244 235 227 225 244 281 290 287 292 292 284 271 251 245 254 260
230 234 238 235 231 230 229 227 220 212 213 215 217 227 235 235 238 240 239 240 239 238 240 241 239 237 238 237 233 231 230 233 236 236 237 240 245 252 257 253 245 236 232 229 228 228 226 225 227 222 216 214 215 218 221 222 220 217 217 216 215 214 211 215 227 225 216 207 203 264 277 244 176 160 168 239 295 298 298 297 299 297 289 274 262 260 265 269
229 230 237 236 232 231 228 219 210 208 215 219 221 227 233 235 237 238 238 238 238 239 240 240 240 240 240 238 234 233 232 233 236 235 237 241 244 250 257 255 246 236 228 222 222 223 221 221 223 220 216 218 224 229 231 231 232 233 234 231 227 225 219 215 232 227 221 225 217 204 276 262 202 154 238 293 298 295 298 298 296 292 285 277 271 269 270 272
227 227 235 237 232 229 226 215 208 211 217 222 226 228 230 234 236 236 236 236 236 237 239 239 239 238 240 241 239 239 237 236 235 234 237 242 245 251 258 255 247 239 234 231 230 225 220 220 222 224 227 230 232 233 231 228 230 233 237 240 240 237 226 215 220 227 217 225 232 222 270 265 252 251 275 286 289 292 296 295 292 290 288 285 276 270 268 267
230 229 234 237 235 231 225 216 211 213 219 225 228 229 230 233 235 235 235 235 234 235 235 235 235 234 235 237 237 238 238 239 240 241 242 245 248 253 255 249 243 237 231 230 228 220 215 217 220 223 232 234 231 232 231 227 226 226 230 233 231 232 231 228 234 239 226 223 223 203 253 258 260 271 277 281 285 288 291 289 290 294 294 290 276 262 256 254
232 232 232 235 236 232 224 217 213 214 220 224 225 226 229 232 234 234 234 233 233 234 234 234 233 232 232 233 234 236 236 237 241 244 244 246 249 251 248 242 238 234 227 224 223 215 211 214 213 209 221 231 229 231 229 223 222 225 229 230 228 231 233 232 234 237 241 239 223 204 241 256 263 273 275 280 284 283 286 288 291 294 292 282 262 250 250 256
227 228 231 232 233 229 226 228 225 221 221 221 221 223 227 230 233 234 234 234 233 233 233 234 235 234 234 234 234 235 234 234 238 242 242 244 247 246 243 239 236 232 227 225 224 218 216 217 213 205 198 206 212 219 224 223 221 224 228 229 229 231 230 231 232 228 232 239 227 226 243 255 263 268 271 276 279 280 285 289 290 291 285 273 264 263 266 273
219 221 224 227 228 227 229 233 230 223 220 219 220 222 224 227 230 232 232 232 232 230 230 232 234 234 234 235 234 234 234 233 235 239 241 244 244 241 238 237 234 228 222 218 217 215 218 222 222 221 222 225 229 231 235 234 227 227 232 233 233 233 233 233 231 226 227 226 232 243 248 252 261 266 268 272 277 281 285 287 287 286 283 278 275 274 277 282
221 220 220 219 218 219 222 226 225 223 221 219 219 221 223 225 228 230 230 230 230 230 230 231 233 232 231 231 231 233 235 235 235 238 240 242 241 237 232 229 227 223 218 215 213 213 217 222 225 230 234 238 242 245 247 245 238 236 239 239 239 238 238 235 231 235 237 228 238 252 252 253 262 265 266 270 275 279 281 282 284 284 282 280 278 279 284 288
225 222 222 219 213 211 217 222 224 225 224 222 220 223 224 225 226 229 231 231 232 233 233 234 235 235 234 233 233 235 237 235 235 238 238 237 235 231 225 221 219 219 218 217 217 217 219 224 228 232 237 241 243 245 247 244 241 240 238 238 242 242 241 240 240 245 244 238 247 258 257 259 266 266 265 268 272 274 278 281 282 282 280 278 279 284 288 288
228 225 224 222 218 215 218 222 223 224 227 226 225 226 228 229 229 229 231 232 233 234 235 235 237 238 238 237 237 237 237 234 233 235 235 234 232 229 225 220 218 219 220 220 220 219 221 227 231 233 238 242 242 243 246 246 246 248 247 247 250 251 251 250 250 252 250 248 254 259 259 261 265 265 264 267 271 275 279 281 280 279 278 278 282 285 285 281
232 229 228 227 224 221 220 220 220 220 223 225 225 227 230 231 231 232 232 232 233 235 236 236 238 240 240 240 238 238 241 243 242 241 241 238 233 231 229 225 220 219 218 218 218 218 222 229 235 239 242 246 247 246 246 249 250 253 256 255 253 253 251 248 248 249 248 250 254 256 255 258 262 262 264 269 273 276 278 278 276 276 277 280 282 281 278 274
237 232 231 231 230 226 223 222 220 218 218 219 220 223 227 229 231 233 233 234 235 237 238 239 241 240 239 240 240 243 248 249 247 247 246 242 238 238 237 232 228 223 219 218 219 221 226 231 236 240 241 244 248 247 245 247 250 254 255 253 248 248 250 250 249 250 251 254 255 252 252 258 263 266 269 274 277 277 275 274 273 274 276 277 277 276 275 273
239 235 230 230 233 232 227 225 223 220 219 219 220 224 227 230 233 233 231 232 234 236 238 242 244 241 239 240 244 249 249 246 244 243 241 241 242 242 240 239 239 236 231 227 227 228 231 233 235 235 232 237 242 241 239 242 247 251 251 250 249 252 256 258 257 259 260 260 256 253 257 264 269 271 274 276 276 275 274 274 272 272 272 272 273 273 273 272
Height
3168 3168 3169 3170 3171 3172 3172 3173 3174 3175 3176 3177 3178 3178 3179 3180 3180 3181 3182 3182 3183 3183 3183 3183 3184 3184 3184 3184 3185 3185 3185 3186 3186 3186 3186 3186 3187 3187 3187 3187 3187 3188 3188 3188 3188 3189 3189 3189 3189 3189 3189 3189 3190 3190 3190 3190 3190 3190 3190 3191 3191 3191 3191 3192 3192 3192 3192 3193 3193 3194 3194 3194 3194 3194 3194 3194 3193 3193 3193 3191 3190 3190 3189 3190 3191 3191 3191 3191
3167 3168 3169 3170 3170 3171 3172 3173 3173 3174 3175 3176 3177 3177 3178 3179 3180 3181 3181 3182 3182 3182 3182 3182 3183 3183 3183 3183 3184 3184 3184 3185 3185 3185 3185 3186 3186 3186 3186 3187 3187 3187 3187 3187 3188 3188 3188 3188 3188 3189 3189 3189 3189 3189 3189 3190 3190 3190 3190 3190 3190 3190 3191 3191 3191 3191 3192 3192 3192 3193 3193 3193 3193 3193 3193 3193 3193 3192 3191 3190 3189 3189 3188 3188 3189 3189 3189 3190
3167 3167 3168 3169 3170 3170 3171 3172 3173 3173 3174 3175 3176 3176 3177 3178 3179 3180 3180 3181 3181 3181 3181 3181 3181 3182 3182 3182 3183 3183 3184 3184 3184 3184 3185 3185 3185 3185 3186 3186 3186 3186 3187 3187 3187 3187 3187 3187 3188 3188 3188 3188 3188 3189 3189 3189 3189 3189 3189 3190 3190 3190 3190 3190 3190 3190 3191 3191 3192 3192 3192 3191 3191 3191 3191 3191 3192 3191 3190 3189 3189 3189 3188 3187 3187 3187 3188 3188
3166 3167 3168 3168 3169 3170 3170 3171 3172 3173 3174 3174 3175 3176 3177 3177 3178 3179 3179 3179 3180 3180 3180 3180 3180 3181 3181 3181 3182 3182 3183 3183 3183 3183 3184 3184 3184 3185 3185 3185 3185 3186 3186 3186 3186 3186 3186 3187 3187 3187 3187 3188 3188 3188 3188 3188 3189 3189 3189 3189 3189 3189 3189 3189 3189 3189 3190 3190 3190 3190 3190 3190 3190 3190 3190 3189 3190 3190 3189 3188 3189 3188 3188 3187 3187 3187 3187 3187
3165 3166 3167 3167 3168 3169 3169 3170 3171 3172 3173 3174 3174 3175 3176 3176 3177 3177 3178 3178 3178 3178 3179 3179 3179 3180 3180 3180 3181 3181 3182 3182 3182 3182 3183 3183 3184 3184 3184 3184 3185 3185 3185 3185 3185 3185 3186 3186 3186 3187 3187 3187 3187 3188 3188 3188 3188 3188 3188 3188 3188 3188 3188 3188 3188 3188 3189 3189 3189 3189 3189 3189 3189 3188 3188 3187 3188 3188 3188 3188 3187 3187 3187 3186 3186 3186 3186 3186
3164 3165 3165 3166 3167 3167 3168 3169 3170 3171 3172 3173 3173 3174 3175 3175 3176 3176 3176 3177 3177 3177 3177 3178 3178 3178 3179 3179 3180 3180 3181 3181 3181 3181 3182 3182 3183 3183 3183 3183 3184 3184 3184 3184 3185 3185 3185 3185 3186 3186 3186 3186 3186 3187 3187 3187 3187 3187 3187 3187 3187 3188 3187 3187 3187 3187 3187 3188 3187 3187 3187 3187 3187 3187 3186 3186 3186 3186 3186 3186 3186 3185 3185 3185 3185 3185 3185 3184
3163 3163 3164 3165 3165 3166 3167 3168 3169 3170 3171 3171 3172 3173 3173 3174 3174 3175 3175 3175 3176 3176 3176 3176 3177 3177 3178 3178 3179 3179 3180 3180 3180 3181 3181 3181 3182 3182 3182 3182 3183 3183 3183 3183 3184 3184 3184 3184 3184 3184 3185 3185 3185 3185 3185 3186 3186 3186 3186 3186 3186 3186 3186 3186 3186 3186 3186 3186 3186 3185 3186 3186 3186 3186 3185 3185 3184 3184 3185 3185 3185 3185 3184 3184 3184 3184 3183 3183
3161 3162 3162 3163 3164 3165 3166 3166 3167 3168 3169 3170 3171 3171 3172 3173 3173 3173 3174 3174 3174 3174 3175 3175 3175 3176 3176 3177 3177 3178 3179 3179 3179 3180 3180 3180 3181 3181 3181 3181 3182 3182 3182 3182 3183 3183 3183 3183 3183 3183 3183 3183 3183 3183 3184 3184 3185 3185 3185 3185 3185 3185 3185 3184 3184 3184 3184 3185 3184 3184 3184 3184 3184 3184 3184 3183 3183 3183 3183 3183 3183 3183 3183 3183 3183 3182 3182 3182
3159 3160 3161 3162 3162 3163 3164 3165 3166 3167 3168 3169 3169 3170 3170 3171 3171 3172 3172 3173 3173 3173 3173 3173 3174 3174 3175 3175 3176 3177 3177 3177 3178 3178 3179 3179 3179 3180 3180 3180 3180 3180 3181 3181 3181 3181 3181 3182 3182 3182 3182 3182 3182 3182 3182 3183 3183 3183 3183 3184 3184 3183 3183 3183 3183 3183 3183 3183 3183 3183 3183 3182 3182 3182 3182 3182 3182 3182 3181 3181 3181 3181 3181 3181 3181 3181 3180 3180
3158 3159 3159 3160 3161 3162 3162 3163 3164 3165 3166 3167 3167 3168 3169 3169 3170 3170 3171 3171 3171 3171 3171 3172 3172 3172 3173 3174 3174 3176 3176 3176 3177 3177 3177 3178 3178 3178 3178 3179 3179 3179 3179 3179 3179 3180 3180 3180 3180 3180 3180 3180 3180 3180 3181 3181 3181 3181 3182 3182 3182 3181 3182 3182 3182 3182 3181 3181 3181 3181 3181 3180 3180 3180 3180 3180 3180 3180 3180 3180 3180 3179 3179 3179 3179 3179 3178 3178
3155 3157 3157 3158 3159 3160 3161 3161 3162 3163 3164 3165 3166 3166 3167 3167 3168 3168 3169 3169 3169 3169 3170 3170 3170 3171 3171 3172 3173 3174 3174 3174 3175 3175 3176 3176 3176 3176 3177 3177 3177 3177 3177 3177 3178 3178 3178 3178 3178 3178 3178 3178 3178 3179 3179 3179 3179 3180 3180 3180 3180 3180 3180 3180 3180 3180 3180 3180 3179 3179 3179 3179 3179 3178 3179 3179 3178 3178 3178 3178 3177 3177 3177 3177 3177 3177 3177 3177
3153 3154 3155 3156 3157 3158 3159 3159 3160 3161 3162 3163 3164 3164 3165 3165 3166 3167 3167 3167 3167 3168 3168 3168 3168 3169 3169 3170 3171 3172 3172 3173 3173 3173 3174 3174 3174 3174 3175 3175 3175 3175 3176 3176 3176 3176 3176 3176 3177 3177 3177 3176 3177 3177 3177 3178 3178 3178 3178 3178 3178 3178 3178 3178 3178 3178 3178 3178 3177 3177 3176 3176 3176 3176 3177 3177 3176 3176 3176 3176 3175 3175 3175 3175 3176 3176 3175 3175
3150 3151 3152 3153 3155 3156 3157 3157 3158 3159 3160 3161 3161 3162 3163 3163 3164 3164 3165 3165 3165 3165 3166 3166 3166 3166 3167 3168 3170 3170 3170 3171 3171 3171 3172 3172 3172 3172 3173 3173 3173 3174 3174 3174 3174 3175 3175 3175 3175 3175 3175 3175 3175 3176 3176 3176 3176 3176 3176 3175 3175 3175 3175 3175 3175 3175 3176 3176 3176 3175 3174 3173 3174 3174 3175 3175 3174 3174 3174 3174 3174 3174 3174 3174 3174 3174 3173 3173
3147 3148 3149 3151 3152 3153 3154 3155 3156 3157 3158 3158 3159 3160 3161 3161 3162 3162 3163 3163 3163 3163 3163 3163 3164 3164 3164 3166 3167 3167 3168 3168 3169 3169 3170 3170 3170 3170 3171 3171 3171 3172 3172 3172 3172 3173 3173 3173 3173 3173 3173 3173 3173 3174 3174 3174 3174 3174 3174 3173 3173 3173 3173 3173 3173 3173 3174 3174 3174 3174 3172 3171 3171 3172 3173 3173 3173 3172 3172 3172 3172 3172 3172 3172 3172 3172 3171 3171
3143 3145 3146 3147 3149 3150 3152 3153 3154 3155 3156 3156 3157 3157 3158 3159 3159 3160 3160 3160 3161 3161 3161 3161 3161 3161 3162 3163 3165 3165 3165 3166 3167 3167 3167 3168 3168 3168 3169 3169 3169 3169 3170 3170 3170 3170 3171 3171 3171 3171 3170 3171 3171 3172 3172 3173 3172 3172 3172 3172 3172 3172 3171 3171 3171 3171 3172 3172 3172 3172 3171 3169 3169 3170 3171 3171 3171 3170 3170 3170 3171 3171 3171 3171 3171 3170 3170 3169
3140 3141 3143 3144 3146 3147 3149 3150 3151 3153 3153 3153 3154 3155 3156 3156 3156 3157 3157 3158 3158 3158 3159 3159 3159 3159 3159 3160 3162 3162 3163 3163 3164 3164 3165 3165 3166 3166 3166 3166 3167 3167 3167 3167 3168 3168 3168 3169 3169 3169 3168 3168 3169 3170 3171 3171 3170 3170 3170 3170 3170 3169 3169 3169 3169 3169 3170 3170 3170 3170 3169 3168 3168 3167 3168 3169 3168 3168 3168 3168 3169 3169 3169 3169 3169 3168 3168 3168
3136 3138 3139 3141 3142 3144 3145 3147 3149 3150 3151 3151 3152 3152 3153 3153 3154 3154 3154 3155 3155 3156 3156 3156 3157 3157 3156 3158 3158 3159 3160 3160 3161 3162 3162 3163 3163 3163 3164 3164 3164 3164 3165 3165 3165 3166 3166 3166 3166 3166 3166 3166 3167 3168 3169 3168 3167 3168 3168 3168 3168 3167 3167 3166 3166 3166 3167 3168 3168 3167 3166 3167 3167 3166 3166 3166 3166 3166 3166 3167 3167 3167 3166 3166 3166 3166 3166 3166
3133 3134 3136 3137 3139 3140 3142 3144 3146 3147 3148 3148 3149 3150 3150 3150 3151 3151 3151 3152 3152 3153 3153 3153 3154 3154 3154 3155 3155 3156 3157 3157 3158 3159 3160 3160 3160 3161 3161 3161 3161 3162 3162 3162 3163 3163 3164 3164 3164 3164 3164 3163 3164 3165 3166 3165 3166 3166 3166 3165 3165 3165 3164 3164 3164 3164 3164 3165 3165 3164 3164 3164 3165 3164 3163 3163 3162 3163 3163 3164 3164 3164 3164 3164 3164 3164 3164 3164
3129 3131 3132 3134 3135 3137 3139 3140 3142 3144 3145 3145 3146 3147 3147 3147 3148 3148 3148 3149 3149 3150 3150 3150 3151 3151 3151 3152 3153 3153 3154 3154 3155 3156 3157 3157 3158 3158 3158 3158 3158 3159 3159 3159 3160 3161 3161 3161 3161 3160 3160 3160 3161 3162 3163 3163 3163 3163 3163 3163 3162 3162 3162 3162 3163 3162 3162 3161 3161 3161 3160 3160 3161 3162 3161 3160 3159 3160 3160 3161 3161 3161 3161 3161 3161 3162 3162 3162
3126 3127 3129 3130 3132 3134 3135 3137 3139 3141 3141 3142 3143 3144 3144 3145 3145 3145 3145 3145 3146 3147 3147 3147 3147 3148 3148 3149 3150 3150 3151 3152 3152 3153 3154 3154 3155 3155 3155 3155 3156 3156 3156 3157 3157 3158 3158 3158 3157 3157 3157 3159 3160 3160 3161 3160 3160 3160 3160 3160 3160 3160 3159 3160 3160 3160 3159 3158 3157 3158 3157 3156 3157 3158 3158 3157 3157 3157 3157 3157 3157 3157 3157 3158 3159 3160 3160 3160
3122 3123 3125 3127 3128 3130 3132 3134 3136 3137 3138 3139 3140 3141 3141 3142 3142 3141 3142 3142 3143 3143 3143 3144 3144 3144 3146 3146 3147 3147 3148 3149 3149 3150 3151 3151 3152 3152 3152 3152 3153 3153 3154 3154 3155 3155 3155 3153 3153 3155 3157 3157 3158 3158 3157 3157 3157 3157 3157 3157 3157 3156 3156 3157 3158 3157 3157 3155 3154 3155 3153 3153 3154 3155 3154 3153 3154 3154 3154 3154 3154 3154 3155 3156 3157 3157 3158 3158
3118 3119 3121 3123 3124 3127 3129 3130 3132 3133 3134 3135 3137 3138 3139 3140 3139 3139 3139 3138 3138 3140 3140 3140 3140 3141 3143 3143 3143 3144 3144 3145 3146 3147 3148 3148 3149 3149 3149 3149 3150 3150 3151 3151 3151 3152 3150 3148 3151 3155 3155 3155 3155 3155 3155 3154 3154 3154 3154 3154 3153 3153 3153 3154 3155 3154 3154 3152 3151 3151 3149 3149 3151 3151 3150 3150 3150 3151 3151 3151 3151 3152 3152 3153 3154 3155 3156 3156
3114 3116 3118 3119 3121 3123 3125 3127 3128 3130 3131 3132 3134 3135 3136 3137 3137 3137 3136 3134 3133 3135 3135 3135 3135 3137 3138 3138 3139 3140 3140 3142 3143 3143 3145 3145 3145 3146 3145 3145 3147 3147 3147 3147 3148 3148 3146 3147 3150 3152 3151 3152 3152 3152 3152 3151 3151 3151 3151 3150 3149 3150 3151 3152 3152 3151 3151 3150 3148 3148 3147 3145 3146 3146 3146 3146 3147 3147 3148 3148 3148 3149 3150 3151 3152 3153 3153 3153
3109 3112 3114 3115 3118 3119 3121 3123 3124 3126 3128 3129 3131 3133 3133 3134 3134 3134 3134 3131 3127 3129 3131 3131 3131 3132 3134 3134 3135 3136 3136 3138 3139 3140 3141 3141 3142 3142 3141 3142 3143 3142 3143 3144 3144 3143 3143 3145 3148 3148 3148 3149 3149 3148 3149 3148 3148 3147 3147 3147 3146 3148 3149 3149 3149 3149 3148 3147 3146 3146 3144 3141 3141 3142 3142 3143 3143 3144 3144 3145 3146 3147 3148 3149 3149 3150 3150 3150
3105 3107 3109 3111 3113 3115 3117 3118 3120 3124 3125 3126 3128 3130 3130 3131 3131 3131 3132 3128 3121 3122 3126 3126 3126 3127 3128 3130 3130 3132 3133 3132 3134 3136 3137 3137 3138 3138 3137 3138 3138 3138 3140 3141 3141 3139 3140 3143 3144 3144 3145 3145 3146 3145 3146 3146 3145 3144 3144 3144 3145 3146 3146 3146 3147 3146 3145 3143 3142 3144 3143 3139 3137 3139 3139 3140 3141 3141 3141 3142 3143 3144 3145 3146 3147 3147 3147 3147
3101 3103 3105 3107 3109 3112 3112 3112 3118 3122 3121 3124 3126 3127 3128 3128 3129 3129 3130 3126 3115 3113 3119 3120 3120 3121 3122 3125 3126 3129 3128 3126 3130 3133 3132 3133 3133 3133 3133 3133 3134 3135 3137 3138 3137 3135 3136 3139 3139 3141 3142 3142 3142 3141 3142 3143 3142 3141 3141 3142 3143 3143 3144 3144 3144 3144 3142 3140 3140 3141 3140 3137 3135 3136 3137 3138 3138 3138 3139 3140 3141 3143 3144 3144 3145 3145 3145 3146
3096 3098 3100 3103 3105 3107 3107 3109 3116 3117 3118 3122 3123 3123 3125 3125 3127 3127 3129 3126 3111 3105 3111 3113 3114 3115 3117 3120 3122 3124 3122 3120 3125 3127 3127 3128 3128 3129 3129 3128 3130 3131 3133 3135 3133 3130 3132 3135 3136 3137 3138 3138 3137 3137 3139 3140 3140 3139 3138 3140 3141 3141 3142 3142 3142 3141 3140 3139 3138 3137 3137 3135 3132 3132 3134 3135 3135 3136 3137 3138 3139 3140 3141 3142 3142 3143 3143 3144
3091 3094 3096 3098 3101 3102 3103 3107 3111 3113 3116 3119 3119 3121 3121 3122 3125 3125 3129 3125 3106 3099 3104 3106 3108 3110 3112 3115 3116 3118 3117 3117 3121 3122 3122 3124 3124 3124 3124 3124 3126 3128 3130 3131 3128 3127 3130 3132 3133 3134 3134 3134 3134 3135 3136 3137 3137 3137 3137 3138 3139 3140 3140 3140 3140 3140 3139 3138 3135 3134 3135 3134 3129 3128 3131 3131 3131 3133 3134 3135 3137 3138 3139 3139 3140 3140 3141 3141
3087 3089 3091 3094 3096 3097 3098 3101 3105 3110 3113 3114 3116 3117 3118 3120 3122 3123 3128 3119 3099 3095 3100 3102 3105 3106 3108 3111 3112 3113 3113 3114 3116 3117 3118 3119 3119 3120 3120 3121 3124 3124 3125 3125 3125 3126 3127 3128 3130 3131 3130 3130 3132 3133 3133 3134 3134 3135 3136 3137 3137 3138 3138 3138 3139 3138 3138 3135 3131 3131 3133 3132 3126 3124 3127 3128 3128 3129 3130 3132 3134 3135 3136 3137 3138 3138 3138 3138
3082 3084 3086 3088 3089 3091 3093 3096 3102 3106 3108 3110 3112 3113 3115 3117 3117 3122 3123 3108 3093 3093 3096 3098 3101 3103 3105 3107 3108 3110 3110 3111 3112 3113 3114 3115 3115 3117 3117 3119 3120 3121 3121 3121 3121 3123 3124 3125 3126 3127 3127 3128 3129 3130 3130 3131 3132 3133 3134 3135 3136 3136 3136 3137 3136 3136 3137 3131 3127 3128 3130 3130 3126 3122 3123 3125 3125 3127 3128 3130 3132 3133 3135 3135 3135 3136 3135 3135
3077 3079 3081 3082 3084 3087 3089 3092 3098 3101 3103 3105 3107 3109 3111 3112 3115 3117 3107 3093 3091 3092 3092 3095 3098 3099 3102 3104 3105 3106 3107 3107 3108 3109 3110 3111 3112 3113 3114 3116 3116 3117 3118 3117 3118 3119 3119 3120 3121 3123 3124 3125 3126 3127 3128 3128 3129 3130 3132 3133 3134 3135 3135 3135 3135 3135 3134 3128 3124 3125 3126 3127 3125 3120 3120 3122 3123 3125 3127 3129 3130 3132 3133 3133 3133 3133 3132 3133
3072 3074 3076 3077 3079 3082 3084 3088 3093 3096 3098 3100 3103 3104 3106 3109 3109 3101 3089 3088 3092 3089 3087 3092 3094 3096 3100 3100 3101 3103 3103 3104 3104 3105 3106 3107 3108 3108 3110 3111 3111 3114 3113 3112 3114 3115 3115 3116 3118 3119 3120 3121 3123 3124 3125 3125 3126 3127 3129 3131 3133 3134 3135 3134 3133 3133 3129 3124 3122 3123 3124 3123 3118 3116 3119 3121 3122 3123 3125 3127 3128 3129 3130 3130 3130 3130 3130 3131
3067 3069 3070 3071 3074 3077 3080 3085 3087 3089 3091 3095 3098 3098 3101 3104 3094 3082 3081 3087 3088 3084 3085 3089 3090 3093 3096 3095 3097 3098 3099 3100 3100 3102 3103 3104 3105 3105 3106 3107 3108 3110 3109 3109 3112 3112 3112 3113 3114 3115 3116 3117 3118 3119 3120 3121 3122 3124 3125 3127 3129 3132 3134 3132 3131 3129 3125 3121 3120 3122 3123 3118 3112 3113 3116 3118 3120 3122 3122 3124 3125 3126 3126 3126 3127 3127 3128 3128
3061 3063 3065 3066 3069 3072 3076 3079 3080 3082 3086 3089 3091 3092 3095 3092 3077 3070 3077 3082 3082 3083 3085 3086 3087 3090 3091 3092 3093 3094 3096 3097 3097 3099 3099 3099 3100 3100 3102 3103 3104 3105 3107 3108 3109 3109 3110 3109 3109 3110 3111 3112 3113 3115 3117 3118 3120 3121 3122 3124 3125 3126 3127 3126 3124 3123 3120 3119 3119 3121 3120 3112 3108 3109 3111 3114 3118 3119 3120 3121 3122 3122 3123 3123 3124 3125 3125 3125
3055 3057 3060 3061 3063 3065 3069 3073 3075 3078 3081 3082 3084 3086 3084 3075 3064 3065 3070 3074 3079 3081 3082 3084 3086 3086 3087 3088 3089 3091 3093 3093 3094 3095 3095 3095 3095 3095 3097 3099 3100 3101 3103 3105 3106 3106 3106 3105 3105 3107 3107 3109 3110 3112 3114 3116 3117 3118 3119 3121 3121 3121 3122 3121 3120 3119 3119 3119 3117 3116 3112 3107 3106 3108 3108 3112 3115 3116 3118 3118 3119 3119 3119 3120 3121 3122 3123 3123
3048 3050 3052 3053 3055 3060 3064 3068 3071 3073 3074 3075 3077 3075 3068 3059 3057 3062 3065 3070 3075 3077 3079 3082 3082 3082 3083 3084 3085 3087 3089 3090 3091 3091 3091 3091 3091 3091 3093 3095 3096 3097 3098 3100 3101 3102 3103 3102 3103 3104 3104 3106 3107 3108 3111 3112 3113 3114 3115 3115 3116 3118 3119 3119 3119 3118 3120 3119 3111 3107 3106 3104 3106 3106 3106 3110 3112 3113 3115 3115 3116 3117 3116 3117 3118 3119 3120 3120
3041 3042 3043 3044 3049 3055 3059 3063 3065 3067 3069 3068 3066 3061 3055 3052 3056 3060 3063 3066 3071 3073 3076 3077 3076 3077 3078 3079 3080 3083 3086 3087 3087 3087 3087 3088 3086 3085 3087 3091 3092 3093 3094 3097 3098 3098 3100 3099 3100 3101 3102 3103 3104 3105 3107 3108 3109 3110 3111 3112 3114 3117 3117 3118 3118 3118 3120 3118 3107 3101 3101 3101 3102 3102 3102 3106 3108 3110 3111 3112 3113 3114 3114 3115 3115 3116 3117 3116
3034 3036 3035 3037 3043 3049 3054 3057 3059 3061 3061 3060 3056 3052 3048 3048 3052 3057 3060 3063 3067 3070 3072 3070 3070 3071 3073 3074 3076 3079 3082 3082 3082 3083 3083 3083 3081 3079 3082 3086 3087 3088 3091 3095 3095 3095 3097 3097 3098 3099 3100 3101 3102 3102 3103 3104 3106 3107 3107 3109 3111 3112 3113 3114 3116 3115 3116 3115 3106 3099 3097 3097 3097 3098 3099 3102 3105 3106 3108 3109 3111 3111 3112 3113 3113 3114 3114 3113
3028 3029 3026 3029 3038 3043 3048 3051 3052 3054 3054 3051 3049 3043 3040 3042 3047 3052 3056 3059 3062 3065 3065 3064 3066 3068 3068 3069 3072 3075 3077 3076 3077 3079 3078 3078 3077 3075 3078 3082 3083 3085 3088 3090 3091 3091 3093 3095 3095 3096 3097 3098 3098 3097 3098 3099 3101 3102 3104 3106 3107 3108 3108 3109 3110 3109 3109 3110 3106 3098 3094 3092 3091 3093 3096 3099 3101 3103 3104 3106 3107 3108 3109 3110 3111 3111 3111 3111
3020 3020 3016 3022 3033 3037 3041 3045 3046 3046 3044 3042 3041 3034 3033 3038 3043 3046 3051 3054 3057 3058 3058 3059 3062 3063 3063 3065 3068 3070 3072 3072 3073 3074 3074 3073 3073 3071 3074 3077 3079 3082 3084 3086 3087 3088 3090 3091 3091 3092 3093 3093 3091 3091 3092 3093 3095 3096 3098 3100 3101 3103 3105 3105 3105 3104 3105 3106 3104 3100 3093 3088 3088 3091 3093 3096 3098 3099 3101 3102 3104 3105 3106 3107 3108 3108 3108 3108
3014 3012 3008 3015 3025 3031 3035 3037 3037 3037 3036 3035 3034 3030 3031 3034 3037 3040 3044 3048 3051 3051 3052 3055 3057 3058 3058 3060 3062 3065 3068 3068 3068 3069 3069 3068 3068 3068 3070 3073 3075 3078 3080 3081 3081 3083 3085 3086 3087 3087 3087 3086 3086 3088 3090 3091 3091 3092 3093 3093 3095 3098 3100 3102 3101 3099 3100 3101 3100 3099 3093 3085 3086 3089 3090 3093 3095 3096 3098 3099 3100 3101 3103 3104 3104 3104 3104 3104
3005 3004 3002 3006 3016 3023 3026 3025 3026 3028 3027 3025 3024 3025 3028 3030 3031 3034 3038 3041 3045 3046 3047 3049 3051 3053 3054 3055 3057 3061 3063 3063 3063 3063 3063 3062 3063 3065 3067 3070 3072 3074 3075 3075 3076 3078 3080 3082 3083 3083 3082 3083 3085 3086 3087 3088 3088 3089 3089 3090 3092 3093 3093 3095 3094 3093 3096 3096 3095 3098 3092 3082 3082 3086 3088 3090 3092 3093 3094 3095 3096 3098 3099 3100 3100 3101 3100 3099
2996 2998 3000 3001 3007 3015 3016 3015 3019 3020 3017 3016 3020 3023 3025 3025 3026 3029 3031 3034 3038 3039 3041 3043 3045 3048 3049 3051 3054 3056 3057 3058 3057 3057 3057 3058 3059 3062 3065 3066 3067 3069 3070 3070 3070 3073 3076 3077 3078 3079 3080 3082 3083 3082 3083 3084 3084 3084 3085 3085 3087 3087 3088 3090 3090 3090 3092 3090 3091 3096 3090 3078 3080 3084 3085 3087 3089 3090 3091 3092 3093 3095 3095 3096 3096 3096 3096 3096
2992 2994 2996 2995 3000 3005 3004 3004 3009 3009 3008 3012 3017 3020 3021 3021 3021 3022 3024 3027 3030 3033 3035 3037 3039 3042 3045 3047 3049 3050 3052 3053 3051 3051 3053 3054 3054 3058 3060 3061 3062 3064 3064 3064 3065 3067 3070 3071 3073 3077 3079 3080 3080 3079 3078 3078 3079 3079 3078 3079 3081 3083 3086 3088 3087 3089 3088 3084 3087 3090 3081 3076 3080 3082 3081 3084 3086 3086 3088 3089 3090 3091 3091 3092 3092 3092 3093 3093
2989 2989 2990 2991 2993 2993 2992 2995 2999 3000 3002 3008 3011 3013 3015 3016 3015 3016 3019 3022 3025 3027 3029 3031 3034 3038 3041 3043 3044 3044 3046 3047 3046 3047 3048 3048 3049 3052 3055 3057 3058 3059 3061 3062 3063 3065 3065 3064 3065 3066 3068 3069 3069 3068 3067 3069 3072 3073 3073 3075 3078 3080 3081 3082 3083 3084 3082 3080 3082 3081 3075 3076 3080 3078 3078 3082 3082 3083 3085 3086 3086 3087 3087 3088 3088 3088 3088 3088
2984 2982 2983 2986 2987 2986 2987 2991 2995 2996 2999 3002 3003 3005 3007 3008 3008 3011 3014 3017 3019 3022 3024 3026 3030 3033 3036 3037 3037 3038 3040 3042 3043 3043 3043 3043 3045 3047 3049 3051 3052 3054 3056 3058 3059 3061 3060 3059 3058 3056 3056 3057 3058 3060 3062 3065 3067 3068 3068 3071 3073 3075 3076 3077 3077 3076 3075 3078 3077 3073 3072 3076 3077 3075 3076 3078 3079 3080 3081 3082 3082 3083 3083 3083 3083 3083 3083 3083
2979 2976 2976 2979 2982 2982 2983 2985 2987 2988 2991 2994 2995 2996 2999 3001 3004 3006 3008 3011 3013 3016 3020 3022 3024 3026 3027 3028 3030 3032 3034 3037 3038 3038 3038 3039 3041 3042 3044 3046 3047 3049 3051 3053 3054 3055 3054 3053 3053 3053 3053 3055 3057 3059 3061 3062 3063 3064 3066 3067 3069 3070 3071 3071 3069 3069 3073 3075 3070 3067 3072 3073 3072 3072 3073 3075 3077 3077 3077 3078 3078 3078 3078 3078 3077 3077 3077 3077
2972 2971 2972 2974 2974 2975 2976 2977 2978 2981 2985 2989 2990 2992 2994 2996 2999 3000 3001 3004 3007 3010 3014 3015 3015 3016 3019 3023 3025 3026 3029 3031 3031 3031 3032 3035 3036 3038 3039 3041 3043 3044 3045 3046 3048 3049 3049 3048 3049 3051 3052 3052 3055 3056 3057 3059 3060 3061 3063 3063 3065 3066 3065 3064 3065 3067 3070 3068 3064 3066 3070 3068 3066 3068 3070 3072 3073 3073 3073 3074 3074 3073 3073 3072 3072 3072 3072 3073
2965 2966 2968 2969 2969 2969 2971 2973 2975 2978 2981 2984 2986 2987 2989 2991 2992 2994 2996 2999 3001 3003 3006 3006 3005 3008 3013 3017 3019 3021 3022 3023 3022 3023 3027 3030 3031 3033 3034 3036 3037 3038 3039 3041 3042 3044 3045 3044 3046 3047 3048 3049 3051 3052 3054 3056 3056 3056 3057 3058 3059 3060 3059 3060 3063 3064 3065 3063 3063 3066 3066 3062 3062 3064 3066 3068 3069 3068 3069 3070 3069 3069 3068 3067 3067 3067 3068 3069
2960 2961 2963 2965 2965 2966 2968 2970 2973 2975 2976 2979 2979 2980 2983 2985 2986 2990 2992 2992 2993 2996 2998 2998 2999 3003 3008 3011 3012 3013 3013 3014 3016 3019 3023 3025 3025 3026 3028 3029 3030 3032 3034 3036 3037 3040 3040 3040 3042 3043 3044 3045 3045 3047 3050 3051 3052 3052 3051 3051 3053 3054 3055 3056 3058 3060 3061 3060 3061 3063 3060 3056 3058 3061 3062 3063 3064 3064 3065 3065 3064 3064 3063 3062 3062 3063 3063 3064
2956 2957 2959 2961 2961 2962 2964 2966 2968 2970 2971 2972 2974 2975 2977 2979 2981 2986 2987 2987 2989 2991 2992 2994 2996 3000 3003 3005 3005 3006 3008 3011 3014 3016 3019 3019 3020 3022 3023 3025 3027 3028 3029 3031 3033 3034 3036 3036 3037 3040 3041 3040 3040 3043 3045 3046 3048 3047 3042 3041 3046 3048 3048 3049 3052 3055 3056 3056 3057 3057 3052 3050 3053 3058 3059 3059 3059 3059 3060 3060 3059 3059 3058 3058 3058 3058 3059 3059
2951 2952 2954 2956 2957 2958 2960 2962 2964 2965 2965 2967 2970 2971 2973 2975 2978 2982 2983 2983 2986 2988 2989 2992 2995 2997 2997 2997 2998 3000 3004 3008 3009 3011 3013 3014 3015 3018 3019 3020 3023 3024 3025 3027 3028 3029 3031 3032 3034 3036 3037 3036 3037 3039 3041 3045 3046 3037 3028 3032 3040 3042 3042 3044 3046 3048 3049 3050 3050 3047 3044 3046 3051 3054 3055 3054 3054 3054 3055 3055 3054 3053 3053 3053 3053 3054 3054 3054